Wind_Speed
7 7 7 6 6 5 5 5 5 4 3 3 3 3 2 1 2 2 2 2 3 3 3 3 4 4 5 5 6 6 7 7 8 8 8 9 9 9 9 9 10 10 10
7 7 7 7 6 6 6 5 5 5 4 4 4 4 3 3 3 3 4 4 4 4 4 4 5 5 6 6 7 7 8 8 8 9 9 10 10 10 10 10 11 11 12
8 8 7 7 7 6 6 6 6 6 5 5 5 5 5 4 5 5 5 5 6 5 6 6 6 6 7 7 7 8 8 9 9 9 9 9 10 11 11 11 12 12 12
8 8 8 8 7 7 7 7 7 6 6 6 6 6 6 5 6 6 7 7 7 7 7 7 7 7 8 8 8 8 9 8 9 9 9 9 10 10 10 11 12 13 13
9 8 8 8 8 8 8 8 7 7 7 6 7 7 6 6 6 7 7 8 8 9 9 9 9 9 10 9 9 9 9 9 9 10 11 11 11 11 12 12 13 14 14
11 10 9 9 8 8 9 9 9 7 7 7 7 7 7 7 7 7 8 8 9 9 10 10 12 12 11 11 11 11 11 11 11 11 12 12 12 13 13 13 14 15 16
12 11 10 9 9 9 9 10 10 8 8 7 7 7 8 8 9 9 9 9 10 10 11 11 12 13 13 13 13 13 13 13 13 13 13 13 14 14 15 15 15 16 17
12 12 11 10 10 10 10 11 11 10 10 9 8 8 9 10 10 11 11 11 11 12 12 13 13 14 14 15 15 15 15 15 14 14 14 14 15 15 15 15 16 17 17
14 13 13 11 10 11 12 13 13 13 12 12 11 11 11 11 12 13 13 13 13 14 14 15 15 15 16 16 16 16 16 16 16 16 16 16 17 16 16 16 17 17 18
16 15 15 13 12 13 13 13 14 15 14 14 13 13 13 14 14 15 15 15 16 16 16 16 16 17 17 18 17 18 18 18 18 18 18 17 18 18 18 18 18 18 18
17 17 15 15 14 14 14 15 15 15 14 14 14 15 15 17 17 16 17 17 18 18 18 18 18 19 19 19 19 19 19 20 20 20 19 19 19 19 19 19 19 19 19
18 18 17 16 16 16 16 17 16 16 15 15 16 17 17 17 17 16 17 18 18 19 20 20 20 20 20 21 21 21 21 21 20 21 21 20 20 19 19 19 20 20 20
20 20 19 18 17 18 18 18 18 17 17 17 18 18 18 18 18 18 18 19 19 20 20 21 21 21 21 21 22 22 22 22 22 22 22 22 22 21 21 21 21 21 22
20 20 20 20 19 19 20 20 20 20 19 19 19 19 19 19 19 20 20 20 20 20 21 21 21 22 22 22 22 23 23 23 23 23 23 23 23 23 23 23 24 24 24
20 19 19 20 21 21 21 21 21 21 20 19 18 19 20 20 20 20 20 21 21 21 21 22 22 22 23 23 24 24 24 24 24 24 24 24 25 25 25 25 25 25 25
20 20 20 20 21 21 22 22 22 22 21 20 20 20 20 20 21 21 21 21 21 22 22 22 23 23 23 23 24 24 24 24 25 25 25 25 26 27 27 27 27 27 27
22 21 21 21 21 22 22 22 22 22 22 22 22 20 20 21 22 23 22 22 22 23 23 24 24 23 23 23 24 24 24 25 25 25 26 27 27 28 28 28 28 28 27
24 23 22 23 23 22 23 23 23 23 23 24 23 22 22 22 23 23 23 24 24 24 24 24 24 23 23 24 24 25 25 25 26 27 27 28 28 28 28 28 29 29 29
25 24 24 24 24 23 23 23 24 24 24 25 24 23 23 23 23 23 24 24 24 24 24 24 24 25 24 25 25 26 26 26 27 27 28 28 28 29 29 29 29 29 29
25 24 24 24 24 24 24 24 25 26 26 25 24 24 24 24 23 24 24 24 25 25 25 25 25 25 25 25 25 26 26 26 27 28 28 28 28 29 29 30 30 30 30
26 25 25 25 24 25 25 26 26 26 26 26 25 25 25 25 24 25 25 25 25 26 26 26 26 25 26 26 26 26 26 26 27 27 28 28 28 29 30 31 31 31 31
27 26 25 25 25 25 25 26 26 27 26 26 26 25 26 25 25 25 26 26 27 27 27 26 26 26 26 27 26 26 26 27 27 27 28 28 28 29 30 31 31 31 31
27 26 26 25 25 25 25 26 27 28 27 26 25 25 25 25 26 27 28 28 27 28 27 26 27 27 27 26 27 27 27 27 28 28 29 29 29 29 29 30 30 30 30
26 25 25 25 26 27 27 27 27 27 27 26 26 26 26 25 27 28 28 27 27 27 26 25 26 26 26 26 27 27 27 27 28 28 29 29 29 29 29 29 30 30 31
26 25 25 25 26 27 27 27 27 27 26 25 26 26 27 27 27 27 26 25 25 25 24 24 24 25 25 26 26 27 27 27 28 28 29 29 29 28 29 29 29 29 30
25 25 25 26 26 26 27 27 27 26 26 25 24 25 26 26 25 24 24 24 23 23 24 24 24 25 26 27 27 27 27 28 29 29 29 30 29 28 28 28 28 28 28
Wind_Direction
16 17 16 15 8 355 340 338 340 342 343 342 339 333 323 297 290 288 288 285 286 287 286 277 276 275 274 275 275 269 267 263 263 265 265 269 272 274 276 275 272 270 270
9 9 5 356 351 342 334 328 332 326 318 317 321 319 303 281 275 277 275 280 283 281 278 274 277 280 284 281 279 277 271 267 266 268 268 269 271 275 276 275 274 277 277
5 3 356 350 342 334 327 322 319 314 308 302 303 307 305 286 267 262 266 278 281 280 282 280 278 283 286 285 284 282 282 273 267 270 273 270 271 272 276 277 276 277 278
350 348 343 341 338 330 317 316 306 300 297 288 285 289 290 283 273 270 270 277 277 272 275 277 279 282 283 285 290 288 283 284 273 269 270 271 270 271 274 276 278 279 280
339 330 323 320 321 318 311 304 299 287 281 281 275 278 281 282 278 275 275 278 277 271 271 271 274 277 282 285 289 289 284 285 286 279 274 273 271 273 274 276 276 277 279
328 323 316 312 311 313 310 307 297 286 278 280 277 279 282 286 284 281 280 280 280 277 275 273 272 276 280 282 282 282 281 283 285 285 279 277 274 273 274 276 277 277 279
322 320 309 306 305 307 311 308 304 292 282 281 277 280 282 282 284 282 282 283 282 279 277 277 275 276 278 280 282 282 282 282 283 283 282 278 277 275 275 277 277 279 282
311 314 310 306 304 302 306 306 306 300 289 282 283 284 286 285 284 284 283 283 282 279 276 276 276 277 277 278 278 279 281 281 280 279 280 279 279 278 278 278 280 280 281
308 309 309 302 299 301 302 303 303 302 296 289 286 285 285 288 283 281 284 281 281 280 279 276 277 278 279 278 276 276 278 280 278 274 276 279 282 283 283 283 284 284 283
307 308 305 299 295 297 299 300 302 298 295 290 287 286 287 288 284 282 283 281 280 279 278 279 278 278 279 278 276 276 276 278 277 274 274 276 280 282 284 282 281 283 284
304 305 300 296 295 295 297 297 300 299 293 292 287 287 287 286 284 281 279 278 276 278 278 278 279 279 279 277 277 277 276 278 278 276 276 275 277 281 281 279 281 282 284
300 300 299 295 293 293 296 298 297 298 294 290 289 287 287 290 287 285 281 280 278 275 275 277 280 280 279 277 277 278 277 278 277 277 277 278 278 280 278 278 280 282 283
298 297 297 294 293 292 293 295 295 294 293 289 287 287 288 288 288 287 285 283 283 281 278 276 279 280 278 277 277 278 278 276 277 277 277 276 277 279 280 281 282 282 281
298 297 294 290 289 288 289 293 294 295 293 289 286 285 285 286 287 287 287 285 283 281 279 278 278 278 278 278 278 278 277 277 277 277 277 278 278 279 279 281 282 281 279
298 298 297 292 289 288 289 291 291 292 292 290 288 289 288 285 285 286 286 285 285 283 280 278 278 278 279 279 277 276 276 276 277 277 277 278 279 281 282 281 284 282 281
297 296 297 296 291 289 289 290 290 291 292 291 288 286 286 287 286 287 285 284 285 285 283 280 279 279 280 281 278 276 276 276 277 277 277 278 279 281 283 283 283 283 283
296 296 295 293 290 286 286 288 290 291 292 293 290 286 284 285 285 286 287 284 284 283 282 280 281 281 280 278 278 278 278 278 277 278 278 278 279 281 282 282 282 282 282
292 294 294 293 291 286 285 288 289 289 290 291 291 288 286 284 285 286 287 285 283 283 282 279 280 281 281 280 279 279 279 279 279 278 278 278 278 280 281 282 281 282 282
293 292 293 292 290 287 287 285 285 287 290 290 289 286 287 285 284 285 286 285 283 283 282 279 279 280 280 280 279 278 279 280 280 279 279 278 277 279 281 281 282 283 282
291 290 290 288 288 289 289 288 287 288 289 290 288 286 286 288 287 286 286 284 282 281 281 280 278 279 279 279 279 279 279 280 281 281 280 280 278 279 279 280 281 283 283
290 289 291 290 290 290 290 290 289 289 288 287 288 286 285 285 284 285 286 283 281 280 279 280 278 277 278 279 280 280 280 282 283 284 283 281 280 280 280 280 280 281 282
288 288 288 288 287 288 289 290 290 290 289 289 287 285 285 285 284 284 286 285 283 280 279 278 278 278 278 278 279 280 281 282 283 284 284 283 282 282 281 281 281 281 281
287 286 286 286 285 286 288 288 289 290 289 289 287 284 284 284 285 284 286 286 284 282 280 280 279 277 278 280 280 280 282 284 285 285 285 285 285 284 283 283 283 282 282
288 285 284 285 284 286 286 286 287 289 289 287 286 284 283 286 287 285 285 286 285 285 283 282 280 279 281 282 283 284 284 285 286 286 286 286 285 286 284 284 284 283 283
283 284 286 286 285 284 284 285 286 287 287 286 286 286 287 288 289 287 286 287 287 287 285 284 283 282 282 283 285 285 285 286 286 287 287 287 286 287 286 287 286 285 286
282 283 285 285 286 285 284 284 284 283 284 285 287 288 290 292 292 291 291 290 287 286 285 284 285 285 285 285 286 286 286 286 287 287 288 289 288 287 288 287 287 287 287
Height
5899 5898 5896 5896 5895 5894 5893 5892 5890 5889 5889 5888 5888 5888 5888 5887 5887 5887 5887 5887 5886 5886 5886 5885 5885 5885 5885 5885 5885 5885 5885 5885 5885 5885 5885 5885 5885 5885 5884 5884 5884 5883 5883
5899 5898 5896 5895 5894 5893 5892 5891 5890 5889 5889 5888 5888 5887 5887 5887 5886 5886 5886 5886 5885 5885 5885 5884 5884 5884 5883 5883 5883 5883 5883 5883 5883 5883 5883 5883 5883 5882 5882 5881 5881 5881 5881
5899 5897 5896 5895 5893 5892 5891 5890 5890 5889 5888 5887 5887 5886 5886 5885 5885 5885 5885 5884 5884 5884 5883 5883 5883 5882 5882 5882 5881 5881 5881 5881 5880 5880 5880 5880 5880 5880 5880 5879 5878 5878 5877
5898 5896 5895 5893 5892 5891 5890 5889 5888 5888 5887 5886 5886 5885 5885 5884 5884 5883 5883 5883 5882 5882 5882 5881 5881 5881 5881 5880 5880 5879 5878 5878 5877 5877 5877 5877 5877 5877 5877 5876 5875 5875 5874
5896 5895 5893 5892 5891 5890 5888 5887 5886 5886 5885 5884 5884 5884 5883 5882 5882 5881 5881 5881 5880 5880 5880 5879 5879 5879 5878 5878 5878 5877 5876 5875 5875 5874 5874 5874 5874 5873 5873 5873 5872 5872 5871
5895 5893 5891 5890 5889 5888 5887 5885 5884 5882 5882 5882 5882 5882 5881 5880 5880 5879 5879 5879 5878 5877 5877 5877 5877 5876 5876 5875 5875 5874 5874 5873 5872 5872 5871 5871 5870 5870 5869 5869 5869 5868 5867
5893 5891 5890 5888 5887 5886 5885 5883 5882 5880 5879 5879 5879 5879 5878 5878 5877 5877 5876 5876 5876 5875 5875 5874 5874 5873 5873 5872 5872 5871 5871 5870 5869 5869 5868 5867 5867 5866 5866 5865 5865 5864 5863
5890 5889 5887 5886 5885 5884 5882 5881 5880 5878 5877 5876 5875 5875 5875 5875 5875 5874 5873 5873 5872 5872 5872 5871 5871 5870 5869 5869 5868 5868 5867 5867 5866 5865 5865 5864 5863 5862 5862 5860 5860 5860 5859
5887 5886 5884 5883 5882 5881 5879 5878 5877 5876 5874 5873 5873 5872 5872 5871 5871 5870 5869 5869 5868 5868 5867 5867 5866 5866 5865 5865 5864 5864 5863 5863 5862 5861 5861 5860 5859 5858 5857 5856 5855 5855 5854
5883 5882 5881 5879 5878 5877 5876 5875 5873 5872 5871 5870 5869 5868 5868 5867 5867 5866 5865 5864 5864 5863 5863 5862 5862 5861 5860 5860 5859 5859 5859 5858 5857 5856 5856 5855 5854 5853 5852 5851 5850 5850 5849
5879 5878 5876 5875 5874 5873 5872 5871 5869 5868 5867 5866 5865 5864 5863 5863 5861 5861 5860 5859 5858 5858 5857 5857 5856 5856 5855 5854 5854 5854 5853 5853 5852 5851 5851 5850 5849 5848 5847 5846 5845 5844 5843
5875 5873 5872 5871 5870 5869 5868 5866 5865 5864 5863 5861 5860 5859 5858 5857 5856 5855 5854 5853 5852 5852 5851 5851 5850 5850 5849 5849 5848 5848 5847 5847 5847 5846 5845 5845 5844 5843 5842 5841 5840 5839 5838
5869 5868 5867 5866 5865 5864 5862 5861 5861 5860 5858 5857 5855 5854 5853 5852 5851 5850 5849 5848 5847 5846 5845 5845 5844 5844 5843 5843 5842 5842 5841 5841 5841 5840 5840 5839 5838 5837 5836 5835 5834 5833 5832
5864 5863 5862 5861 5859 5858 5857 5856 5855 5854 5853 5852 5851 5849 5848 5847 5846 5845 5844 5842 5841 5840 5839 5839 5838 5838 5837 5837 5836 5835 5835 5834 5834 5834 5833 5833 5832 5831 5830 5829 5828 5827 5826
5860 5858 5856 5855 5854 5852 5851 5850 5849 5848 5847 5846 5845 5844 5842 5841 5840 5839 5838 5837 5835 5834 5833 5833 5832 5831 5830 5830 5829 5829 5828 5828 5828 5827 5827 5826 5825 5824 5823 5822 5821 5820 5819
5854 5852 5851 5849 5848 5846 5845 5844 5843 5842 5841 5839 5838 5837 5836 5835 5834 5833 5832 5831 5829 5828 5827 5826 5825 5824 5824 5823 5822 5821 5821 5821 5821 5820 5820 5819 5818 5817 5816 5815 5814 5813 5812
5848 5847 5845 5843 5841 5839 5838 5837 5836 5835 5834 5833 5832 5830 5829 5828 5827 5826 5825 5824 5823 5822 5821 5820 5819 5817 5817 5816 5815 5815 5814 5814 5814 5813 5813 5812 5811 5810 5809 5808 5807 5805 5804
5842 5840 5838 5836 5834 5832 5831 5830 5829 5828 5828 5826 5825 5824 5823 5821 5820 5819 5818 5816 5815 5814 5813 5812 5812 5811 5810 5809 5808 5808 5807 5807 5806 5805 5805 5804 5803 5802 5801 5800 5799 5797 5796
5835 5833 5831 5829 5827 5825 5824 5823 5822 5821 5820 5819 5817 5816 5815 5814 5813 5811 5810 5809 5808 5807 5806 5805 5804 5804 5803 5802 5801 5800 5799 5799 5798 5797 5796 5795 5794 5794 5793 5792 5791 5790 5788
5827 5826 5824 5821 5819 5818 5817 5816 5816 5814 5813 5812 5810 5808 5808 5807 5805 5804 5802 5801 5800 5799 5798 5797 5797 5796 5795 5795 5794 5793 5792 5791 5790 5789 5788 5787 5786 5785 5784 5783 5782 5781 5780
5820 5819 5817 5815 5813 5812 5810 5809 5808 5807 5805 5804 5802 5800 5799 5798 5797 5796 5795 5793 5792 5791 5790 5789 5788 5788 5787 5787 5786 5785 5784 5783 5782 5780 5779 5778 5777 5776 5775 5774 5773 5772 5771
5813 5812 5810 5808 5807 5805 5804 5803 5801 5799 5798 5796 5795 5793 5792 5791 5790 5789 5787 5786 5784 5783 5782 5781 5780 5780 5779 5779 5778 5777 5776 5775 5774 5773 5771 5770 5769 5767 5766 5765 5764 5763 5761
5806 5804 5803 5801 5800 5798 5796 5795 5793 5792 5791 5789 5787 5786 5784 5783 5782 5781 5779 5778 5776 5775 5774 5773 5772 5772 5771 5770 5769 5768 5767 5767 5766 5764 5763 5762 5760 5758 5757 5756 5754 5753 5752
5798 5797 5795 5794 5792 5790 5789 5787 5786 5785 5783 5781 5780 5778 5776 5775 5774 5773 5771 5770 5768 5767 5766 5765 5765 5764 5763 5762 5761 5760 5759 5758 5757 5756 5755 5753 5751 5750 5748 5747 5745 5744 5743
5791 5789 5787 5786 5784 5783 5781 5780 5778 5777 5775 5774 5773 5771 5769 5768 5766 5764 5763 5762 5761 5759 5759 5758 5757 5756 5755 5754 5754 5753 5752 5750 5749 5748 5746 5745 5744 5742 5740 5738 5737 5736 5734
5783 5782 5780 5778 5777 5775 5773 5772 5770 5769 5767 5766 5765 5763 5761 5760 5758 5757 5755 5754 5753 5751 5750 5750 5749 5748 5747 5746 5746 5745 5743 5742 5741 5739 5738 5737 5735 5734 5732 5730 5729 5727 5725